[[{"header":{"parameterUnit":"m.s-1","parameterCategory":1,"la1":30.2991,"la2":30.254,"lo1":-89.0895,"lo2":-89.0444,"dy":0.0017,"dx":0.0017,"nx":28,"ny":28,"refTime":"2025-01-04T09:00:00:Z","depth":0,"parameterNumber":2,"parameterNumberName":"U-component_of_WINDS"},"data":[0,0,0,0,0,0,0,0,0,0,0,0,0,0,0,0,0,0,0,0,0,0,0,0,0,0,0,0,0,0,0,0,0,0,0,0,0,0,0,0,0,0,0,0,0,0,0,0,0,0,0,0,0,0,0,0,0,0,-4.22,-4.22,0,-4.2236,-4.2237,-4.2237,-4.2082,-4.2077,-4.2073,-4.2069,-4.2109,-4.2114,-4.2119,0,0,0,0,0,0,0,0,0,0,0,0,0,-4.1998,-4.2002,-4.22,-4.22,-4.2201,-4.2236,-4.2237,-4.2237,-4.2083,-4.2077,-4.2072,-4.2067,-4.2107,-4.2113,-4.212,0,0,0,0,0,0,0,0,0,0,0,0,0,-4.2065,-4.2004,-4.22,-4.2128,-4.2122,-4.2236,-4.2237,-4.2237,-4.2084,-4.2077,-4.207,-4.2064,-4.2105,-4.2113,-4.2121,-4.2306,0,0,-4.2145,-4.2148,0,0,0,0,0,0,0,0,-4.2061,-4.2073,-4.2138,-4.2133,-4.2126,-4.2147,-4.218,-4.2261,-4.2086,-4.2099,-4.2069,-4.2061,-4.2127,-4.2133,-4.2155,-4.2308,-4.231,-4.2146,-4.215,-4.2154,-4.2156,0,0,0,0,0,0,0,-4.2057,-4.207,-4.2214,-4.2139,-4.2132,-4.2094,-4.2096,-4.2194,-4.2151,-4.2097,-4.2086,-4.2092,-4.2123,-4.2148,-4.2155,-4.2311,-4.2145,-4.2153,-4.2157,-4.2161,-4.2617,-4.2624,0,0,0,0,0,0,-4.2061,-4.2067,-4.2213,-4.2215,-4.2076,-4.2103,-4.2106,-4.2148,-4.2149,-4.2143,-4.2098,-4.2085,-4.2137,-4.2146,-4.2156,-4.2373,-4.2154,-4.2161,-4.2166,-4.261,-4.2619,-4.2626,0,0,0,0,0,0,-4.2058,-4.2076,-4.2211,-4.2138,-4.2153,-4.2114,-4.2163,-4.2152,-4.2176,-4.215,-4.2142,-4.2131,-4.2132,-4.2144,-4.227,-4.2372,-4.2165,-4.2172,-4.2601,-4.2612,-4.2623,-4.281,0,0,0,0,0,0,-4.2053,-4.2076,-4.2146,-4.2141,-4.2157,-4.2325,-4.2169,-4.2158,-4.219,-4.2174,-4.2179,-4.2173,-4.2128,-4.2259,-4.2278,-4.2379,-4.2178,-4.2592,-4.2606,-4.2619,-4.2794,-4.2826,-4.2853,0,0,0,0,0,-4.2046,-4.2198,-4.215,-4.2169,-4.2244,-4.2332,-4.2341,-4.2285,-4.2199,-4.227,-4.2252,-4.2173,-4.2358,-4.2273,-4.2293,-4.2399,-4.2585,-4.2602,-4.2618,-4.2781,-4.282,-4.2852,0,0,0,0,0,0,-4.2217,-4.2196,-4.2143,-4.2298,-4.2317,-4.2305,-4.2392,-4.2327,-4.2372,-4.2355,-4.2284,-4.2286,-4.2424,-4.2423,-4.2329,-4.2578,-4.2456,-4.2478,-4.2574,-4.261,-4.2639,-4.2637,-4.2185,0,0,0,0,0,-4.2273,-4.2345,-4.2323,-4.2462,-4.2474,-4.2432,-4.2468,-4.2423,-4.2441,-4.2449,-4.244,-4.2461,-4.2523,-4.2566,-4.2622,-4.2793,-4.2792,-4.2875,-4.2904,-4.2929,-4.2949,-4.3038,-4.3075,-4.2681,-4.2681,-4.268,0,0,-4.2389,-4.2386,-4.2437,-4.2496,-4.2506,-4.2583,-4.244,-4.2528,-4.2584,-4.2462,-4.258,-4.2574,-4.2593,-4.2742,-4.2806,-4.2745,-4.3057,-4.295,-4.2969,-4.2976,-4.3059,-4.3096,-4.3129,-4.2692,-4.269,-4.2688,0,0,-4.264,-4.2645,-4.2761,-4.2773,-4.2789,-4.276,-4.2788,-4.2785,-4.2777,-4.2893,-4.2803,-4.2869,-4.2978,-4.2995,-4.3018,-4.3273,-4.3202,-4.3293,-4.3447,-4.3535,-4.3566,-4.3593,-4.3685,-4.3718,-4.3312,-4.3313,-4.3313,0,-4.2783,-4.2894,-4.2829,-4.2922,-4.2951,-4.2842,-4.2959,-4.2974,-4.3009,-4.3032,-4.2962,-4.3095,-4.31,-4.3251,-4.3313,-4.3335,-4.3365,-4.3293,-4.3566,-4.3593,-4.3618,-4.3704,-4.3739,-4.3324,-4.3323,-4.3322,-4.3321,0,-4.3069,-4.3148,-4.3239,-4.3274,-4.3313,-4.3418,-4.3368,-4.3415,-4.3366,-4.3344,-4.3464,-4.3466,-4.352,-4.3552,-4.3505,-4.3696,-4.3657,-4.3578,-4.3455,-4.3667,-4.3747,-4.378,-4.334,-4.3336,-4.3332,-4.333,0,0,-4.3432,-4.3427,-4.3462,-4.3476,-4.3485,-4.3544,-4.3644,-4.3695,-4.3737,-4.3764,-4.3846,-4.394,-4.3866,-4.3892,-4.3846,-4.3924,-4.4126,-4.3835,-4.3834,-4.3889,-4.4336,-4.4397,-4.4436,-4.4078,-4.4084,-4.4089,-4.4335,0,-4.3678,-4.3847,-4.3791,-4.3963,-4.4035,-4.3931,-4.4017,-4.4033,-4.4014,-4.4073,-4.4052,-4.412,-4.4017,-4.4032,-4.4104,-4.4086,-4.4215,-4.4067,-4.4154,-4.4158,-4.4155,-4.4478,-4.4542,-4.4775,-4.4366,-4.4371,-4.4375,0,-4.3989,-4.4027,-4.4206,-4.4202,-4.423,-4.4309,-4.4351,-4.4407,-4.4422,-4.4403,-4.4432,-4.4369,-4.4466,-4.4341,-4.4474,-4.4375,-4.4407,-4.4404,-4.4411,-4.4418,-4.4281,-4.4495,-4.4847,-4.4883,-4.4423,-4.4419,-4.4416,0,-4.4236,-4.4332,-4.4451,-4.4466,-4.4464,-4.4522,-4.4524,-4.4531,-4.4565,-4.4602,-4.4623,-4.4672,-4.4699,-4.4737,-4.4689,-4.4603,-4.483,-4.4701,-4.4817,-4.4819,-4.4871,-4.4869,-4.5235,-4.489,-4.489,-4.4889,-4.4888,0,-4.4519,-4.4633,-4.4562,-4.4636,-4.476,-4.4693,-4.4819,-4.4809,-4.4816,-4.4886,-4.4799,-4.4867,-4.4798,-4.486,-4.4822,-4.4938,-4.4951,-4.4939,-4.4928,-4.4947,-4.4949,-4.4969,-4.4952,-4.4898,-4.4896,-4.4894,-4.4893,0,-4.4817,-4.4774,-4.4898,-4.4884,-4.4883,-4.4976,-4.4965,-4.5032,-4.5006,-4.5096,-4.5113,-4.5074,-4.5141,-4.5096,-4.5165,-4.5139,-4.5292,-4.5257,-4.5287,-4.5278,-4.5397,-4.5387,-4.579,-4.5839,-4.5462,-4.5466,-4.5469,0,-4.5001,-4.5086,-4.5081,-4.5121,-4.5128,-4.5194,-4.5228,-4.5165,-4.5204,-4.5226,-4.5291,-4.5351,-4.5395,-4.5508,-4.5486,-4.5537,-4.5504,-4.5642,-4.5512,-4.5529,-4.5507,-4.5504,-4.5512,-4.5669,-4.5673,-4.5677,-4.568,0,-4.5332,-4.5305,-4.5357,-4.5402,-4.5445,-4.5477,-4.5503,-4.554,-4.5476,-4.5525,-4.5592,-4.5627,-4.5695,-4.5756,-4.5798,-4.58,-4.5731,-4.5721,-4.575,-4.5772,-4.5786,-4.5781,-4.536,-4.5712,-4.5709,-4.5707,-4.5705,-4.5704,-4.5578,-4.5649,-4.5656,-4.5717,-4.5728,-4.5754,-4.5816,-4.5798,-4.5853,-4.5903,-4.5862,-4.5943,-4.5953,-4.6003,-4.6013,-4.6075,-4.6019,-4.6062,-4.6074,-4.6086,-4.6103,-4.5775,-4.6083,-4.6082,-4.6081,-4.608,-4.6079,0,-4.5905,-4.5904,-4.596,-4.5998,-4.6045,-4.5973,-4.5997,-4.6042,-4.6114,-4.6129,-4.6174,-4.6251,-4.6309,-4.629,-4.6342,-4.6395,-4.6365,-4.6411,-4.6407,-4.6409,-4.6149,-4.6119,-4.6435,-4.6435,-4.6435,-4.6435,-4.6435,-4.6435,-4.6081,-4.6196,-4.6171,-4.6291,-4.6289,-4.6367,-4.6386,-4.6409,-4.6421,-4.6511,-4.6558,-4.6545,-4.6546,-4.6597,-4.6647,-4.6639,-4.6663,-4.6722,-4.6704,-4.6462,-4.6427,-4.6394,-4.6365,-4.6727,-4.6728,-4.6957,-4.696,-4.6961]},{"header":{"parameterUnit":"m.s-1","parameterCategory":1,"la1":30.2991,"la2":30.254,"lo1":-89.0895,"lo2":-89.0444,"dy":0.0017,"dx":0.0017,"nx":28,"ny":28,"refTime":"2025-01-04T09:00:00:Z","depth":0,"parameterNumber":3,"parameterNumberName":"V-component_of_WINDS"},"data":[0,0,0,0,0,0,0,0,0,0,0,0,0,0,0,0,0,0,0,0,0,0,0,0,0,0,0,0,0,0,0,0,0,0,0,0,0,0,0,0,0,0,0,0,0,0,0,0,0,0,0,0,0,0,0,0,0,0,-3.1507,-3.1508,0,-3.1553,-3.1553,-3.1554,-3.1514,-3.1512,-3.1511,-3.1509,-3.1554,-3.1557,-3.156,0,0,0,0,0,0,0,0,0,0,0,0,0,-3.1382,-3.1385,-3.1507,-3.1508,-3.1508,-3.1553,-3.1553,-3.1554,-3.1514,-3.1512,-3.151,-3.1508,-3.1553,-3.1557,-3.156,0,0,0,0,0,0,0,0,0,0,0,0,0,-3.1433,-3.1386,-3.1507,-3.1494,-3.1493,-3.1553,-3.1553,-3.1554,-3.1515,-3.1512,-3.151,-3.1507,-3.1552,-3.1556,-3.156,-3.1635,0,0,-3.1573,-3.1575,0,0,0,0,0,0,0,0,-3.143,-3.1438,-3.1495,-3.1495,-3.1494,-3.1525,-3.1526,-3.1581,-3.1515,-3.1506,-3.1509,-3.1506,-3.1547,-3.1551,-3.1565,-3.1637,-3.1639,-3.1573,-3.1576,-3.1578,-3.1579,0,0,0,0,0,0,0,-3.1427,-3.1436,-3.1525,-3.1496,-3.1495,-3.1485,-3.1489,-3.1536,-3.154,-3.1507,-3.1504,-3.151,-3.1546,-3.1561,-3.1566,-3.1639,-3.1573,-3.1577,-3.1579,-3.1581,-3.1772,-3.1775,0,0,0,0,0,0,-3.1425,-3.1433,-3.1524,-3.1526,-3.1456,-3.1489,-3.1494,-3.1518,-3.1539,-3.154,-3.1512,-3.1508,-3.1555,-3.1561,-3.1567,-3.1654,-3.1577,-3.1581,-3.1584,-3.1769,-3.1773,-3.1775,0,0,0,0,0,0,-3.1422,-3.1434,-3.1522,-3.1479,-3.1489,-3.1494,-3.1521,-3.152,-3.1535,-3.1543,-3.1543,-3.1527,-3.1554,-3.1561,-3.1618,-3.1655,-3.1583,-3.1587,-3.1766,-3.177,-3.1774,-3.1829,0,0,0,0,0,0,-3.1419,-3.1433,-3.1462,-3.148,-3.1492,-3.1573,-3.1523,-3.1523,-3.1542,-3.1538,-3.1557,-3.1558,-3.1552,-3.1612,-3.1622,-3.1659,-3.159,-3.1763,-3.1768,-3.1773,-3.1824,-3.1835,-3.1844,0,0,0,0,0,-3.1415,-3.1476,-3.1464,-3.1475,-3.1529,-3.1575,-3.1582,-3.1574,-3.1546,-3.1574,-3.1579,-3.1558,-3.1649,-3.1618,-3.1629,-3.1668,-3.1761,-3.1767,-3.1772,-3.182,-3.1833,-3.1843,0,0,0,0,0,0,-3.1462,-3.1478,-3.1465,-3.1534,-3.1553,-3.1568,-3.1605,-3.1588,-3.1616,-3.161,-3.1599,-3.1604,-3.1663,-3.1671,-3.1636,-3.174,-3.17,-3.1709,-3.1732,-3.1745,-3.1754,-3.1751,-3.1593,0,0,0,0,0,-3.1481,-3.1518,-3.153,-3.1589,-3.16,-3.1601,-3.1621,-3.1613,-3.1632,-3.1641,-3.1649,-3.1669,-3.1701,-3.1724,-3.1755,-3.1825,-3.1828,-3.1857,-3.1867,-3.1875,-3.1882,-3.1918,-3.1931,-3.1795,-3.1795,-3.1795,0,0,-3.152,-3.1533,-3.1557,-3.1599,-3.1614,-3.1651,-3.1608,-3.165,-3.1678,-3.1647,-3.17,-3.1707,-3.1728,-3.1791,-3.182,-3.18,-3.192,-3.1882,-3.1889,-3.1892,-3.1925,-3.1938,-3.1949,-3.1799,-3.1798,-3.1798,0,0,-3.1609,-3.1624,-3.1674,-3.1689,-3.1711,-3.1711,-3.1723,-3.174,-3.1743,-3.1797,-3.1774,-3.1806,-3.1864,-3.1879,-3.1894,-3.1987,-3.1967,-3.1997,-3.2048,-3.2083,-3.2093,-3.2103,-3.2134,-3.2146,-3.2004,-3.2004,-3.2005,0,-3.1654,-3.1711,-3.1702,-3.1745,-3.1764,-3.1737,-3.1787,-3.1802,-3.1833,-3.1846,-3.1823,-3.1893,-3.1906,-3.1971,-3.1994,-3.2007,-3.2019,-3.1995,-3.2093,-3.2102,-3.2111,-3.2141,-3.2153,-3.2008,-3.2007,-3.2007,-3.2007,0,-3.1765,-3.1804,-3.1842,-3.1872,-3.1895,-3.1942,-3.1938,-3.1962,-3.1951,-3.1953,-3.2007,-3.202,-3.2052,-3.2067,-3.2058,-3.2131,-3.2118,-3.2095,-3.2054,-3.2127,-3.2155,-3.2167,-3.2013,-3.2011,-3.201,-3.201,0,0,-3.1887,-3.191,-3.1924,-3.1936,-3.1958,-3.1988,-3.2032,-3.2064,-3.2083,-3.2105,-3.2141,-3.2189,-3.2167,-3.2184,-3.2176,-3.2207,-3.2278,-3.2179,-3.218,-3.2196,-3.2357,-3.2374,-3.2388,-3.2265,-3.2267,-3.2269,-3.2355,0,-3.1976,-3.2054,-3.2046,-3.2119,-3.2154,-3.2129,-3.2167,-3.2184,-3.2186,-3.2215,-3.2217,-3.2251,-3.222,-3.223,-3.226,-3.2263,-3.231,-3.2257,-3.2297,-3.2299,-3.2292,-3.2402,-3.2421,-3.2501,-3.2366,-3.2368,-3.2369,0,-3.2091,-3.2116,-3.2193,-3.2207,-3.2222,-3.2257,-3.2284,-3.2313,-3.233,-3.2329,-3.2348,-3.2334,-3.2377,-3.2336,-3.2394,-3.2358,-3.2374,-3.2378,-3.2381,-3.2384,-3.2338,-3.2407,-3.2527,-3.2539,-3.2386,-3.2385,-3.2384,0,-3.217,-3.2224,-3.2276,-3.2288,-3.2306,-3.2331,-3.2339,-3.2354,-3.2373,-3.2397,-3.2408,-3.2437,-3.2452,-3.2473,-3.2467,-3.2438,-3.2526,-3.2485,-3.2525,-3.2525,-3.2545,-3.2543,-3.2668,-3.2556,-3.2556,-3.2556,-3.2556,0,-3.227,-3.2318,-3.2312,-3.2344,-3.2396,-3.2385,-3.2437,-3.2442,-3.2456,-3.2487,-3.2467,-3.2497,-3.2487,-3.2516,-3.2511,-3.2559,-3.2566,-3.2566,-3.2564,-3.2567,-3.2567,-3.2577,-3.2571,-3.2559,-3.2559,-3.2558,-3.2557,0,-3.2368,-3.2366,-3.2421,-3.2433,-3.2437,-3.2475,-3.2485,-3.2514,-3.2514,-3.2555,-3.2563,-3.2563,-3.2596,-3.2592,-3.2629,-3.2625,-3.2684,-3.2676,-3.2679,-3.2676,-3.2717,-3.2713,-3.2851,-3.2868,-3.2747,-3.2748,-3.2749,0,-3.2432,-3.2468,-3.2483,-3.2503,-3.2514,-3.2546,-3.2565,-3.2555,-3.2575,-3.2597,-3.2623,-3.2655,-3.2679,-3.2733,-3.2735,-3.2763,-3.2754,-3.2801,-3.2758,-3.276,-3.2753,-3.2751,-3.2754,-3.2809,-3.281,-3.2812,-3.2813,0,-3.2544,-3.2541,-3.2569,-3.2597,-3.262,-3.2641,-3.266,-3.2677,-3.2669,-3.2692,-3.2726,-3.2745,-3.2782,-3.2812,-3.2838,-3.2845,-3.2827,-3.2826,-3.2836,-3.284,-3.284,-3.2839,-3.2701,-3.2823,-3.2822,-3.2821,-3.282,-3.282,-3.2626,-3.2656,-3.2672,-3.2703,-3.2716,-3.2734,-3.2762,-3.2765,-3.2793,-3.2822,-3.2814,-3.2852,-3.2866,-3.2899,-3.2909,-3.2937,-3.292,-3.2936,-3.294,-3.2943,-3.2947,-3.2836,-3.2942,-3.2942,-3.2941,-3.2941,-3.2941,0,-3.2737,-3.2745,-3.2774,-3.2801,-3.2825,-3.2806,-3.2825,-3.2847,-3.288,-3.2895,-3.2919,-3.2957,-3.2986,-3.299,-3.3018,-3.3039,-3.3032,-3.3047,-3.3045,-3.3046,-3.2962,-3.295,-3.3052,-3.3052,-3.3052,-3.3052,-3.3052,-3.3052,-3.2797,-3.2846,-3.2844,-3.2899,-3.2907,-3.2943,-3.2956,-3.2972,-3.2983,-3.3026,-3.305,-3.3053,-3.3063,-3.3091,-3.3116,-3.3117,-3.3127,-3.3145,-3.3142,-3.3064,-3.3052,-3.3042,-3.303,-3.3148,-3.3148,-3.3224,-3.3225,-3.3225]}]]